Wetbulb
38.49 34.15 32.03 35.16 36.37 34.66 32.62 31.45 31.16 33.39 38.62 35.19 35.54 35.21 38.54 39.16 35.45 33.70 33.78 33.82 34.16 34.67 36.38 36.24 35.77 35.37 35.83 36.46 37.12 37.45 37.82 38.63 40.92 41.92 43.34 44.81 42.80 43.30 43.88 46.46 47.69 50.36 52.74 54.95
35.42 31.92 37.83 37.53 36.54 35.48 32.88 30.79 31.51 35.27 37.18 35.51 35.19 35.65 35.99 35.28 34.50 34.19 33.75 33.08 33.25 33.40 33.58 34.28 33.82 33.43 33.35 33.84 35.52 36.42 36.87 37.20 38.27 39.49 39.87 41.63 40.74 40.58 40.69 42.40 43.15 43.75 45.36 47.43
34.19 37.83 39.79 38.27 35.59 34.46 32.97 31.73 31.98 33.86 34.15 33.46 31.47 31.82 33.20 34.02 34.66 34.86 34.20 33.91 33.46 32.37 31.93 32.09 32.17 31.36 31.66 32.03 32.66 34.87 35.62 36.38 36.93 38.12 38.82 38.99 38.81 37.75 37.35 37.52 38.57 39.08 39.98 39.80
34.96 38.73 38.36 35.61 35.26 36.44 32.10 36.69 35.89 33.66 30.81 28.28 31.60 24.75 30.21 31.73 31.54 32.24 32.10 30.91 30.87 31.26 32.01 32.22 31.28 30.61 30.42 30.54 31.51 33.34 33.98 33.96 35.18 36.53 36.26 35.24 34.02 32.90 33.44 34.63 35.42 36.23 36.69 36.05
35.82 35.86 34.26 34.39 36.05 37.85 35.45 35.73 33.96 31.77 28.79 26.83 27.26 25.10 27.61 30.95 29.19 29.62 30.14 30.85 30.57 30.99 30.98 30.66 30.52 30.94 30.19 30.12 29.31 30.46 32.27 32.33 32.24 32.49 33.00 32.34 30.81 31.69 31.53 31.85 31.76 32.64 33.77 33.82
36.64 36.54 36.37 37.08 35.53 37.21 36.58 33.47 32.11 29.00 27.73 22.59 27.57 27.80 26.52 29.61 31.05 30.08 30.84 30.57 31.17 30.77 30.53 30.54 30.78 30.68 28.99 28.72 28.90 29.46 30.50 30.51 30.87 30.69 30.47 29.67 28.89 28.86 28.87 28.90 28.99 29.83 30.97 31.32
32.63 34.34 35.00 36.31 33.53 33.94 33.24 30.78 24.68 21.97 20.63 22.76 27.30 25.25 28.72 30.82 31.45 32.99 30.63 29.88 30.21 30.60 29.84 29.76 29.24 28.70 28.00 27.36 28.01 29.76 29.26 28.74 29.09 29.21 28.77 28.60 27.80 27.56 27.34 27.68 27.85 27.79 28.09 28.72
29.38 28.83 34.67 35.86 35.13 32.70 30.96 31.64 25.17 16.29 17.88 21.77 27.06 24.82 29.30 30.64 31.25 32.74 32.06 30.77 30.23 30.03 30.49 30.04 29.73 28.70 27.98 27.85 27.16 27.75 28.47 28.21 28.19 28.06 27.64 27.34 27.27 27.08 26.96 26.89 26.97 27.03 27.91 28.46
29.19 30.14 33.50 34.00 34.86 36.43 31.11 28.82 31.62 25.78 13.24 18.28 25.75 27.75 30.57 30.66 29.78 29.77 29.63 29.80 29.58 29.76 29.88 30.13 29.95 29.03 28.45 27.63 27.14 26.81 26.91 27.34 27.73 27.31 26.83 26.59 26.47 25.97 25.45 25.38 25.84 25.56 27.00 28.91
33.96 28.90 33.31 34.06 34.85 33.63 33.15 34.67 27.49 25.65 15.08 14.48 22.53 24.10 26.10 27.40 27.96 29.53 29.44 29.89 30.59 30.79 30.36 29.72 29.31 29.24 29.09 28.69 27.95 27.31 27.09 26.68 26.98 27.24 27.24 26.70 26.11 26.31 25.68 25.01 25.01 25.00 24.68 25.30
35.76 32.96 29.96 33.28 31.75 31.05 30.35 28.98 29.30 29.29 24.51 16.33 13.29 21.82 29.74 30.70 30.65 29.58 30.20 31.27 31.11 31.32 30.82 30.02 29.46 29.36 28.87 28.31 27.56 26.87 26.28 25.80 25.61 26.13 26.05 25.70 25.31 25.19 25.17 24.81 24.59 24.74 25.32 24.70
36.97 32.46 26.14 29.73 31.64 31.53 31.54 30.75 30.72 26.00 22.07 22.35 22.52 25.84 33.03 32.17 32.28 31.45 31.21 32.04 31.33 31.11 31.01 29.58 27.85 27.57 27.16 26.64 26.09 26.14 26.47 26.34 26.42 26.40 26.08 25.90 25.56 25.24 24.74 24.46 24.55 24.71 24.42 24.71
36.65 28.89 18.31 24.75 27.93 30.55 29.20 29.77 30.12 29.14 25.63 16.86 19.37 22.33 32.63 31.79 31.22 31.59 31.24 31.24 31.07 30.67 28.82 29.09 26.64 26.16 25.89 25.54 25.55 25.46 25.82 26.22 26.65 25.89 25.52 25.44 25.13 24.47 24.44 24.47 24.82 24.77 24.38 23.87
39.55 29.92 27.53 27.14 25.31 28.57 26.44 27.93 28.71 26.65 22.32 21.23 25.21 26.83 29.69 30.25 30.45 30.51 30.42 31.07 31.49 30.48 27.60 27.21 25.73 25.50 25.56 25.66 25.27 24.89 25.19 25.72 26.04 25.69 24.84 24.38 23.95 24.19 23.92 24.13 23.83 23.53 23.57 22.91
35.00 24.88 26.97 26.70 27.24 27.96 26.80 26.85 27.07 25.12 26.48 24.81 27.39 27.48 29.07 30.98 30.64 29.96 29.56 28.70 29.82 28.80 25.60 25.97 26.71 26.21 25.81 25.13 24.85 24.61 24.34 24.71 24.61 23.92 24.15 23.82 24.10 23.86 23.28 22.44 21.69 22.06 21.89 21.60
31.64 25.38 26.07 20.67 28.07 28.65 26.84 27.91 27.55 28.39 28.24 26.64 26.71 26.20 31.33 29.12 28.07 26.06 26.71 27.54 29.39 30.10 27.72 26.25 26.38 26.01 26.12 26.17 25.37 25.50 24.41 24.81 24.79 23.77 22.19 22.99 21.30 21.08 20.19 19.28 18.82 18.28 17.90 17.36
28.91 26.25 23.99 23.60 21.97 21.18 17.81 21.41 25.93 27.33 26.32 26.51 22.11 27.39 21.39 24.10 25.70 25.80 25.65 25.37 27.04 27.94 28.35 27.10 26.22 26.16 26.27 26.01 26.60 24.60 24.29 24.04 20.95 19.56 16.89 17.16 18.09 17.18 16.64 15.87 15.37 14.86 14.11 14.47
28.32 26.76 24.94 17.07 17.01 12.87 23.59 21.17 22.53 23.29 25.41 21.86 20.38 17.58 20.42 23.68 24.35 25.38 25.67 25.38 25.41 25.70 25.75 25.88 25.24 24.75 25.60 25.15 24.86 24.36 23.55 21.40 20.05 17.57 15.57 15.78 15.72 13.14 13.24 12.57 11.76 11.79 11.91 11.18
28.50 25.80 18.44 18.41 9.01 16.28 22.39 21.94 19.57 18.67 19.40 22.02 22.45 23.09 24.10 22.98 21.36 21.12 24.11 23.61 24.21 24.36 25.35 25.48 25.96 24.79 24.10 24.14 23.71 22.39 20.35 19.76 18.26 17.86 16.95 14.68 12.47 9.44 10.24 6.77 8.29 9.14 8.56 8.20
27.10 26.93 25.51 9.37 9.55 7.85 19.39 19.44 22.21 22.84 12.31 17.54 19.91 20.10 20.51 20.96 14.28 21.18 23.31 24.76 24.78 25.41 25.82 26.04 25.59 24.59 23.73 22.63 22.06 19.61 17.66 15.63 15.10 16.50 15.07 13.08 11.59 4.80 4.63 7.18 6.17 6.93 5.52 7.49
15.26 19.43 20.05 13.60 15.93 12.00 17.68 20.37 23.13 8.86 15.81 16.38 19.04 21.46 19.17 18.19 22.22 24.07 24.42 23.89 25.39 25.80 25.82 24.96 23.85 24.04 23.25 20.65 18.34 16.81 15.20 13.31 14.49 12.30 11.17 9.35 8.55 4.29 4.18 3.58 4.78 3.69 3.00 4.77
13.43 11.40 10.62 9.89 9.92 7.60 21.96 20.95 17.69 22.08 22.35 22.36 21.35 22.81 22.31 23.26 24.87 24.00 24.50 24.33 24.63 24.20 24.59 25.01 23.01 22.28 19.95 18.02 16.25 14.37 12.54 13.26 10.46 8.43 7.01 4.30 -0.66 0.98 3.42 -4.91 -0.74 -1.71 -0.74 -0.49
14.25 17.24 13.07 15.96 14.25 22.24 23.16 23.73 26.30 25.45 22.98 23.00 23.31 24.37 24.02 23.94 23.60 24.42 23.51 23.48 23.93 24.37 25.34 23.88 21.35 18.38 16.49 13.87 12.82 11.55 11.02 9.79 8.19 3.44 -0.64 -5.94 -2.18 0.67 1.11 -4.57 -0.85 -0.90 -2.30 -2.23
18.02 19.62 16.62 15.81 19.32 20.56 23.28 24.95 25.49 25.56 25.17 26.05 25.73 25.45 23.97 23.14 24.44 24.81 24.13 24.19 23.43 22.43 20.67 18.31 16.25 14.89 11.92 9.87 11.59 7.83 7.57 6.72 -3.01 -0.75 -1.65 -1.05 -2.99 -2.25 -2.34 1.69 2.39 -1.13 -1.77 -0.88
19.79 19.32 16.04 15.79 21.03 21.79 23.03 23.98 25.27 25.81 25.44 25.15 25.09 25.39 24.79 23.21 24.70 24.60 24.26 22.29 22.90 21.45 17.69 16.03 16.66 14.78 10.86 9.55 7.24 4.09 5.12 2.00 0.38 -1.69 0.57 0.43 -1.59 -4.42 -1.93 0.11 0.60 1.84 3.92 5.60
21.00 20.85 17.40 14.17 23.26 23.59 24.32 24.81 25.82 24.51 25.14 25.44 24.10 23.42 23.26 23.63 24.19 24.34 23.10 23.68 21.53 18.64 14.36 13.05 11.04 9.70 7.30 5.50 3.77 0.97 -2.23 -2.31 -3.60 -0.61 1.00 -0.77 -0.85 -1.15 0.53 0.01 -0.03 7.35 11.00 13.25
MSLP
1018.16 1018.82 1018.90 1018.63 1018.70 1018.70 1018.95 1019.22 1019.09 1018.62 1017.86 1018.10 1018.05 1018.55 1018.05 1018.68 1020.23 1021.78 1022.87 1023.70 1024.20 1024.47 1024.57 1024.31 1024.07 1023.75 1023.19 1022.32 1021.67 1021.30 1020.79 1020.59 1019.68 1019.16 1019.49 1019.84 1020.63 1021.04 1021.04 1020.88 1020.92 1020.52 1020.29 1020.06
1019.02 1018.73 1017.85 1018.32 1018.70 1019.06 1019.25 1019.40 1019.30 1018.82 1018.20 1018.59 1018.53 1018.67 1019.13 1020.24 1021.53 1022.51 1023.46 1024.23 1024.77 1025.08 1025.05 1024.89 1024.68 1024.36 1023.93 1023.88 1023.34 1022.76 1022.27 1021.71 1021.31 1021.20 1021.35 1021.58 1021.75 1022.21 1022.47 1022.31 1022.24 1022.17 1021.90 1021.53
1018.39 1017.85 1017.71 1018.19 1018.64 1019.09 1019.26 1019.37 1019.29 1019.14 1018.87 1019.00 1019.29 1019.63 1019.88 1021.63 1022.54 1023.42 1024.23 1024.88 1025.37 1025.71 1025.82 1025.73 1025.53 1025.40 1025.12 1024.66 1024.16 1023.61 1023.23 1023.07 1023.00 1022.55 1022.16 1022.20 1022.38 1022.96 1023.16 1023.47 1023.43 1023.53 1023.40 1023.15
1018.42 1017.58 1017.66 1018.00 1018.22 1018.59 1019.00 1018.57 1018.81 1019.41 1019.99 1020.08 1019.98 1020.60 1020.50 1021.64 1023.04 1023.98 1024.65 1025.19 1025.67 1025.88 1025.99 1026.05 1026.06 1025.89 1025.79 1025.50 1025.17 1024.67 1024.40 1023.85 1023.70 1023.66 1023.36 1023.68 1024.27 1024.73 1025.43 1025.24 1025.21 1024.83 1024.39 1024.18
1017.53 1017.45 1017.63 1017.80 1017.63 1018.18 1018.49 1018.65 1019.42 1019.92 1020.70 1021.14 1021.18 1021.67 1020.70 1022.00 1023.39 1024.42 1025.11 1025.61 1025.91 1025.95 1025.99 1026.11 1026.09 1025.99 1026.07 1025.93 1025.93 1025.28 1024.99 1025.01 1024.85 1024.86 1024.62 1024.86 1025.33 1025.88 1025.93 1025.67 1025.56 1025.56 1025.48 1025.25
1017.47 1017.19 1017.17 1017.09 1017.49 1017.77 1018.42 1019.29 1020.35 1021.20 1021.72 1022.06 1021.44 1021.90 1021.33 1022.02 1022.67 1023.94 1024.97 1025.76 1026.23 1026.30 1026.40 1026.41 1026.46 1026.61 1026.69 1026.44 1026.22 1026.00 1026.03 1025.94 1025.81 1026.00 1025.83 1025.61 1026.18 1026.64 1026.41 1026.31 1026.11 1026.36 1026.42 1026.25
1017.49 1017.16 1016.95 1016.91 1017.52 1018.02 1018.67 1019.85 1021.43 1022.45 1022.95 1022.24 1021.91 1022.52 1021.04 1021.61 1022.28 1022.93 1024.37 1025.43 1025.74 1026.01 1026.30 1026.56 1026.68 1026.85 1026.83 1026.62 1026.39 1026.22 1026.35 1026.72 1026.70 1026.52 1026.48 1026.37 1026.60 1027.01 1027.24 1027.37 1027.11 1026.88 1026.90 1027.00
1017.37 1017.37 1016.90 1016.88 1017.09 1017.69 1018.67 1019.58 1021.34 1022.45 1023.96 1023.14 1022.74 1022.18 1021.03 1022.09 1022.61 1022.87 1023.75 1024.55 1025.28 1025.65 1025.88 1026.21 1026.60 1026.63 1026.76 1026.90 1026.98 1026.86 1026.90 1027.14 1026.90 1026.87 1027.00 1027.07 1027.24 1027.37 1027.50 1027.59 1027.72 1027.46 1027.16 1027.13
1016.85 1016.88 1016.62 1016.89 1017.08 1017.55 1019.11 1019.68 1020.46 1022.22 1024.57 1024.24 1022.47 1021.80 1022.13 1022.91 1023.79 1024.27 1024.86 1025.08 1025.04 1025.24 1025.55 1025.83 1025.93 1026.35 1026.67 1026.72 1027.07 1027.27 1027.36 1027.39 1027.24 1027.35 1027.40 1027.46 1027.62 1027.65 1027.91 1028.02 1027.93 1027.99 1027.81 1027.26
1015.99 1016.90 1017.15 1017.36 1017.62 1018.30 1018.34 1019.03 1020.48 1022.18 1024.28 1024.16 1022.25 1021.83 1021.45 1022.57 1023.25 1024.19 1025.33 1025.62 1025.23 1025.02 1025.35 1025.75 1026.16 1026.34 1026.58 1026.83 1027.10 1027.31 1027.35 1027.45 1027.44 1027.50 1027.70 1027.91 1028.08 1028.19 1028.21 1028.25 1028.19 1028.05 1027.85 1027.74
1016.11 1016.79 1018.18 1017.88 1018.26 1018.60 1019.09 1019.31 1020.39 1021.44 1022.48 1022.88 1022.53 1020.38 1019.14 1019.88 1021.59 1022.74 1023.75 1024.78 1025.37 1025.50 1025.35 1025.76 1026.09 1026.35 1026.55 1026.78 1026.97 1027.23 1027.29 1027.35 1027.46 1027.56 1027.73 1027.98 1028.21 1028.15 1028.06 1028.16 1028.07 1028.10 1028.07 1028.03
1016.10 1017.08 1018.26 1018.16 1018.19 1018.66 1019.08 1018.87 1019.87 1021.27 1022.26 1022.66 1022.32 1019.70 1019.69 1019.76 1020.74 1021.89 1022.66 1023.32 1024.08 1024.89 1025.55 1025.55 1025.87 1026.29 1026.53 1026.70 1026.86 1026.97 1027.07 1027.23 1027.28 1027.44 1027.69 1027.94 1028.03 1028.08 1028.19 1028.27 1028.28 1028.15 1027.96 1027.73
1016.34 1017.53 1018.61 1019.21 1019.13 1019.16 1019.57 1019.61 1019.85 1020.67 1021.47 1021.81 1022.61 1020.53 1020.44 1020.48 1021.14 1021.94 1022.51 1023.13 1023.86 1024.32 1025.04 1025.53 1025.91 1026.05 1026.33 1026.61 1026.67 1026.68 1026.94 1027.12 1027.19 1027.43 1027.70 1027.92 1028.15 1028.34 1028.40 1028.27 1028.06 1027.96 1027.89 1027.76
1015.97 1016.90 1017.66 1018.10 1018.41 1018.72 1019.92 1020.03 1020.10 1020.56 1021.49 1021.32 1020.19 1020.28 1020.93 1021.21 1021.31 1021.96 1022.83 1022.94 1023.26 1023.59 1024.48 1025.19 1025.62 1025.68 1025.96 1026.13 1026.27 1026.46 1026.77 1026.91 1027.26 1027.65 1027.96 1028.21 1028.39 1028.54 1028.57 1028.52 1028.37 1028.26 1028.13 1027.94
1017.11 1018.14 1018.62 1019.11 1018.97 1019.37 1019.80 1020.02 1020.08 1020.50 1020.41 1020.64 1020.06 1020.13 1020.15 1020.85 1021.33 1021.79 1022.24 1022.79 1023.22 1023.76 1024.21 1024.71 1025.15 1025.37 1025.68 1026.03 1026.11 1026.28 1026.50 1026.79 1027.16 1027.65 1028.00 1028.31 1028.50 1028.59 1028.61 1028.58 1028.47 1028.32 1028.11 1027.84
1017.92 1018.72 1019.71 1020.71 1020.63 1020.43 1020.52 1020.18 1020.61 1020.52 1020.62 1020.66 1020.74 1020.17 1020.21 1020.75 1021.18 1021.65 1022.20 1022.57 1023.15 1023.44 1023.71 1024.25 1024.69 1024.98 1025.40 1025.66 1025.68 1025.87 1026.29 1026.72 1027.10 1027.60 1028.24 1028.46 1028.59 1028.63 1028.67 1028.60 1028.56 1028.42 1028.24 1028.07
1018.54 1019.33 1020.77 1021.64 1022.02 1021.93 1021.68 1019.58 1019.94 1020.08 1020.16 1020.75 1021.12 1020.01 1021.05 1020.89 1021.27 1021.54 1021.92 1022.25 1022.63 1022.93 1023.22 1023.67 1024.09 1024.40 1024.66 1024.96 1025.10 1025.61 1026.04 1026.62 1027.32 1027.87 1028.27 1028.38 1028.48 1028.67 1028.78 1028.78 1028.72 1028.62 1028.43 1028.20
1018.62 1020.10 1021.21 1022.49 1023.15 1022.18 1019.41 1019.23 1019.44 1020.09 1020.26 1020.54 1020.94 1020.73 1020.79 1021.03 1021.07 1021.29 1021.40 1021.57 1022.03 1022.43 1022.94 1023.35 1023.60 1023.98 1024.10 1024.33 1024.79 1025.39 1026.09 1026.77 1027.20 1027.75 1028.24 1028.49 1028.79 1028.99 1028.99 1029.00 1029.02 1028.86 1028.66 1028.37
1018.52 1019.87 1021.58 1022.59 1022.97 1021.19 1019.52 1019.30 1019.84 1020.43 1020.08 1020.35 1020.97 1021.13 1021.15 1021.42 1021.46 1021.35 1021.28 1021.42 1021.72 1022.14 1022.48 1022.83 1023.06 1023.39 1023.75 1024.18 1024.75 1025.50 1026.31 1026.72 1027.22 1027.84 1028.37 1028.75 1029.00 1029.21 1029.32 1029.47 1029.32 1029.12 1028.76 1028.38
1019.90 1020.32 1021.26 1022.86 1022.74 1021.46 1019.52 1019.09 1019.14 1020.03 1020.55 1020.02 1020.25 1020.97 1021.32 1021.78 1022.17 1021.34 1021.00 1021.32 1021.62 1021.79 1022.12 1022.36 1022.69 1023.31 1023.83 1024.28 1024.81 1025.51 1026.21 1026.79 1027.38 1027.93 1028.36 1028.83 1029.14 1029.40 1029.61 1029.49 1029.30 1028.94 1028.74 1028.13
1021.39 1021.55 1021.63 1022.21 1022.10 1020.79 1019.54 1019.59 1019.62 1020.67 1019.75 1019.43 1020.14 1020.44 1021.12 1021.74 1021.06 1020.60 1020.62 1021.05 1021.20 1021.50 1021.77 1022.07 1022.71 1023.17 1023.52 1024.33 1024.96 1025.71 1026.34 1026.89 1027.38 1027.99 1028.53 1029.00 1029.31 1029.50 1029.46 1029.31 1029.11 1028.78 1028.42 1028.00
1020.43 1021.61 1021.85 1022.12 1021.96 1020.53 1018.85 1019.67 1019.82 1018.87 1018.82 1019.03 1019.52 1019.65 1020.23 1020.13 1020.15 1020.46 1020.52 1020.71 1020.92 1021.32 1021.51 1021.88 1022.62 1023.12 1023.66 1024.38 1025.18 1025.90 1026.39 1026.86 1027.57 1028.22 1028.79 1029.14 1029.24 1029.27 1029.13 1028.97 1028.68 1028.44 1028.15 1027.80
1019.89 1019.04 1020.06 1019.94 1018.93 1018.04 1018.09 1017.98 1017.81 1018.19 1018.43 1018.80 1019.15 1019.06 1019.38 1019.78 1019.95 1019.83 1019.96 1020.32 1020.58 1020.88 1021.22 1021.52 1022.36 1023.17 1023.89 1024.54 1025.21 1026.00 1026.56 1027.31 1027.98 1028.53 1028.93 1029.10 1029.07 1028.95 1028.71 1028.52 1028.08 1027.93 1027.64 1027.24
1018.52 1018.39 1018.39 1018.76 1017.84 1017.72 1017.55 1017.45 1017.53 1017.73 1018.04 1017.75 1017.97 1018.18 1018.70 1019.27 1019.11 1019.28 1019.42 1019.68 1020.10 1020.37 1020.95 1021.57 1022.59 1023.40 1024.19 1024.82 1025.55 1026.14 1026.90 1027.56 1028.24 1028.78 1028.89 1028.79 1028.79 1028.62 1028.31 1027.95 1027.55 1027.27 1026.88 1026.33
1016.71 1017.03 1016.83 1017.13 1017.07 1017.08 1017.11 1017.02 1016.96 1017.13 1017.33 1017.63 1017.70 1017.98 1018.15 1018.48 1018.56 1018.73 1018.99 1019.32 1019.62 1020.03 1020.77 1021.43 1022.19 1023.07 1023.97 1024.93 1025.80 1026.45 1027.03 1027.61 1028.31 1028.49 1028.40 1028.28 1028.28 1028.23 1027.81 1027.38 1026.86 1026.39 1025.74 1025.26
1015.09 1014.51 1015.50 1015.55 1015.50 1015.64 1015.81 1015.59 1016.04 1016.80 1016.93 1017.07 1017.43 1017.54 1017.57 1017.94 1018.08 1018.21 1018.60 1018.76 1019.19 1019.87 1020.68 1021.60 1022.32 1023.18 1024.09 1024.98 1025.89 1026.49 1026.90 1027.39 1027.87 1028.09 1027.91 1027.86 1027.84 1027.62 1027.29 1026.87 1026.11 1025.51 1024.58 1023.82
Wind_Speed
1 4 8 13 12 3 3 4 4 3 5 1 6 6 12 8 9 8 7 7 8 9 6 9 11 12 12 14 14 15 16 16 12 7 4 6 7 7 10 10 15 14 13 12
4 7 13 4 5 5 2 2 5 6 4 3 6 11 3 7 5 5 8 7 7 5 7 9 10 10 12 11 13 15 15 14 12 8 4 5 4 5 6 9 13 15 15 14
9 7 5 7 5 5 4 6 5 8 3 1 3 7 2 5 8 10 8 6 6 6 6 7 9 9 8 12 11 12 12 14 12 11 6 5 5 4 7 10 9 13 14 15
6 5 4 4 5 7 4 9 7 3 3 4 1 6 6 5 5 5 5 6 6 6 5 5 6 7 7 8 7 9 12 13 12 11 12 14 9 7 4 4 5 8 12 13
8 5 4 5 8 6 7 4 4 2 2 3 4 1 7 6 3 5 5 5 6 5 5 6 5 5 4 6 6 6 10 12 11 11 11 9 11 6 5 6 10 11 10 12
6 2 4 6 3 6 5 5 6 4 3 1 8 8 5 5 3 6 5 6 6 6 5 5 4 5 5 6 6 7 10 10 9 10 11 12 11 9 8 9 8 7 6 8
1 4 2 3 5 3 4 6 3 5 3 7 3 1 8 4 5 10 12 9 8 7 6 5 5 4 5 6 6 6 7 8 6 9 10 10 9 8 9 6 5 7 5 6
7 3 9 4 6 7 6 8 7 8 4 5 2 7 6 1 4 9 11 9 7 8 7 6 5 5 6 6 6 6 7 6 6 8 8 7 7 5 5 6 4 4 4 4
6 5 2 2 2 5 5 5 3 6 3 3 5 4 2 3 4 4 6 7 9 8 7 8 7 6 6 6 6 6 6 6 7 7 6 7 6 7 6 6 5 4 4 6
6 2 1 1 2 3 4 7 4 2 2 5 5 6 6 7 10 7 7 9 8 8 7 7 6 6 5 6 5 5 5 6 6 6 6 5 6 5 5 4 5 6 5 6
5 5 2 3 6 9 2 2 3 3 5 7 3 7 6 11 13 15 12 9 9 8 7 7 6 6 6 5 5 5 5 6 6 5 4 5 4 5 5 5 5 5 4 5
5 5 5 9 1 1 3 7 7 6 7 4 1 13 5 6 11 12 10 11 7 6 6 7 7 7 6 6 5 5 4 4 4 4 4 4 4 5 6 5 5 5 6 5
9 1 2 8 4 2 4 4 4 5 5 8 7 7 3 4 7 8 8 7 7 9 8 6 7 7 7 7 6 6 5 5 4 3 2 1 3 4 5 5 6 6 6 6
3 5 9 13 7 5 5 5 5 6 4 4 13 5 2 4 7 6 7 6 8 8 8 7 7 7 7 7 7 7 6 6 5 4 3 1 1 3 4 4 5 5 6 6
4 5 3 1 4 4 3 6 9 8 7 12 7 12 7 11 9 9 8 7 7 7 9 10 9 8 7 7 7 6 6 6 5 5 3 1 1 2 3 3 3 5 5 6
1 3 3 2 2 2 5 7 9 10 7 9 9 18 7 5 6 5 7 7 7 8 7 7 7 7 7 8 8 6 6 6 5 5 4 1 1 2 2 4 7 8 9 9
6 7 4 7 2 4 9 13 15 11 7 8 12 17 2 6 7 7 8 8 8 7 7 8 8 8 8 9 8 8 6 5 6 5 3 2 4 4 5 6 7 8 9 10
7 5 2 4 3 8 3 2 3 8 10 7 3 4 7 4 2 4 5 6 7 6 6 6 6 6 7 5 5 5 6 5 5 4 4 4 4 4 5 6 7 9 8 10
3 7 4 5 6 8 9 6 9 9 11 10 11 8 4 2 2 6 5 6 7 7 8 8 8 7 4 6 6 7 6 5 4 4 3 3 3 3 5 6 7 7 8 9
3 5 4 4 6 10 6 2 5 5 8 8 7 7 7 5 1 8 6 6 8 8 6 7 7 4 6 6 7 7 6 5 5 5 3 1 0 2 4 6 7 6 6 10
4 1 10 6 7 9 6 5 3 7 10 5 8 8 7 6 9 6 5 7 7 7 9 6 6 8 8 7 7 6 5 5 4 4 3 1 2 3 5 5 5 7 8 10
9 8 5 3 3 11 7 7 9 6 1 6 7 7 8 9 9 7 8 8 9 10 8 7 7 7 7 7 6 6 6 5 4 3 2 3 3 5 4 4 5 5 6 8
3 9 9 13 10 1 8 6 13 5 6 6 6 7 9 8 9 11 9 10 10 10 10 6 8 7 6 6 5 6 4 5 4 3 3 3 5 4 5 4 7 5 5 5
4 5 5 5 4 6 7 8 5 6 8 6 6 6 7 10 12 13 9 9 8 7 8 6 8 9 8 6 5 4 5 5 5 4 5 4 4 5 5 5 5 4 5 5
7 9 5 2 4 3 8 8 7 8 8 7 7 8 11 10 13 12 10 8 9 8 5 8 11 9 8 7 6 5 5 5 4 4 4 4 3 5 5 5 5 6 7 8
8 8 5 7 8 7 7 6 9 9 13 12 10 8 9 9 13 11 11 11 8 7 6 7 7 7 7 6 6 5 5 6 5 4 3 3 3 3 4 5 6 13 15 17
Wind_Direction
41 114 204 202 200 196 163 186 227 268 261 317 253 247 274 319 79 104 97 85 71 52 18 23 19 14 17 25 30 27 26 13 20 18 28 45 55 35 34 33 27 28 27 21
56 219 230 133 177 204 217 243 259 274 265 161 280 275 14 31 45 102 105 88 78 67 39 34 27 25 30 25 25 27 30 30 33 34 14 29 34 44 50 32 32 25 23 24
175 214 154 168 165 160 210 188 221 219 354 270 326 290 163 49 81 79 70 81 71 70 57 28 29 18 20 30 25 38 39 39 32 35 46 51 54 36 26 25 27 24 25 24
236 256 181 167 198 147 223 207 204 201 123 224 86 275 301 138 112 84 107 103 106 90 69 53 35 37 25 25 11 40 42 48 41 34 58 64 66 65 8 15 19 27 30 29
237 180 174 186 214 156 235 117 153 117 128 58 302 305 259 123 179 178 162 145 134 124 118 97 81 78 42 34 19 38 56 50 48 48 60 72 73 57 43 37 36 28 24 28
235 264 182 205 84 149 137 87 52 56 111 299 223 181 268 188 191 161 173 161 155 148 129 112 95 63 54 40 42 39 54 52 50 54 59 70 67 56 56 43 45 28 21 20
236 219 196 164 93 76 97 78 330 337 360 229 137 138 245 301 314 184 162 173 178 168 158 144 113 93 75 60 54 70 72 63 55 69 64 67 72 71 62 44 44 43 26 16
165 256 166 191 188 175 176 156 167 220 210 255 43 236 253 309 342 131 155 162 162 177 181 163 158 131 110 102 87 83 78 81 72 71 64 63 63 63 60 54 36 32 33 21
148 265 126 169 145 145 189 171 166 94 55 46 233 296 268 73 42 97 152 173 195 191 184 178 168 155 142 120 111 103 99 82 70 74 68 58 55 56 51 39 36 25 9 11
198 130 156 135 110 24 157 168 92 37 275 255 258 263 224 206 197 191 203 220 214 201 193 183 178 166 159 143 130 125 111 103 94 81 77 76 70 66 65 48 29 16 359 356
144 122 231 113 198 184 142 191 67 127 151 187 254 254 211 195 180 186 199 214 221 216 200 188 183 180 162 153 152 140 116 109 102 101 93 80 59 48 47 39 18 2 336 335
192 134 168 197 231 340 285 196 164 182 240 260 157 259 8 162 177 173 190 210 217 217 208 196 183 173 176 176 168 165 148 127 132 127 110 83 58 35 25 12 352 347 339 337
181 195 54 346 6 21 225 206 150 102 74 202 185 259 17 92 146 190 190 212 219 211 211 191 185 190 189 189 191 190 186 193 189 175 166 111 28 12 349 339 339 338 331 327
132 159 176 227 190 135 178 197 180 147 168 177 233 266 202 193 190 197 231 249 236 221 191 195 198 200 199 195 198 202 208 205 203 201 203 218 297 302 301 308 317 324 320 312
140 217 117 221 156 143 212 196 182 191 211 210 226 225 183 202 209 219 234 246 252 214 196 200 202 206 204 206 213 210 216 204 188 181 184 164 343 321 312 337 334 335 328 330
122 161 87 314 298 16 264 225 199 231 233 251 265 270 246 170 211 200 211 213 213 223 216 205 213 204 209 215 214 204 210 205 178 157 146 89 62 55 34 8 349 339 333 329
148 132 124 235 63 66 283 220 211 217 197 207 225 244 139 222 198 216 219 199 207 207 205 206 211 211 214 216 209 208 193 145 140 139 135 92 53 28 7 347 341 334 326 322
133 112 139 140 107 223 259 130 124 227 243 208 268 230 212 222 250 246 224 193 203 198 211 224 221 224 227 211 187 142 140 146 126 97 86 66 45 9 348 345 331 322 318 317
138 137 157 191 193 323 283 194 167 172 257 193 210 223 208 119 34 291 221 203 203 205 219 220 214 215 188 178 157 139 139 129 118 129 122 82 39 349 337 320 308 304 307 308
122 45 186 133 177 214 256 58 108 98 279 213 171 183 187 121 150 264 213 206 223 215 205 213 223 190 175 177 150 147 157 151 166 159 143 92 14 277 276 281 295 296 297 298
112 153 216 209 233 283 217 204 144 112 249 166 175 184 150 181 210 219 188 204 207 210 223 232 196 202 196 152 145 163 159 193 144 121 122 184 252 246 261 265 279 288 290 292
154 155 195 83 207 268 159 76 171 204 226 174 188 199 183 216 239 215 210 217 213 224 234 227 199 195 165 150 149 163 186 141 129 134 197 255 276 287 283 259 271 267 278 283
222 189 182 186 203 191 199 188 220 169 174 204 192 208 203 223 229 229 221 215 222 225 236 199 187 168 161 153 158 169 163 145 162 168 238 261 274 271 267 268 284 289 269 272
257 164 214 103 201 208 214 241 241 202 227 228 216 224 197 220 233 234 228 238 230 221 211 175 159 181 181 162 153 142 151 155 152 212 246 254 246 265 257 266 272 271 274 282
194 145 156 231 256 172 243 231 230 232 233 249 240 226 230 214 239 227 238 231 234 224 177 173 189 190 177 158 161 163 165 157 191 215 245 253 249 249 263 252 262 265 262 268
172 187 162 212 217 198 229 211 213 224 245 245 234 258 244 208 234 233 235 238 226 202 159 171 170 159 158 156 169 182 175 177 187 222 241 237 255 259 274 278 289 290 296 302